Weather History for KLCK - December, 2012

Change the Weather History Date:

Saturday, December 29, 2012

  Actual Average Record
Temperature  
Mean Temperature 30 °F -  
Max Temperature 32 °F 37 °F 62 °F (1996)
Min Temperature 28 °F 24 °F 14 °F (2000)
Degree Days  
Heating Degree Days 35    
Moisture  
Dew Point 26 °F    
Average Humidity 83    
Maximum Humidity 90    
Minimum Humidity 77    
Precipitation  
Precipitation 0.00 in - - ()
Sea Level Pressure  
Sea Level Pressure 29.85 in    
Wind  
Wind Speed 7 mph (NW)    
Max Wind Speed 20 mph    
Max Gust Speed 29 mph    
Visibility 3 miles    
Events Snow    
Averages and records for this station are not official NWS values.
T = Trace of Precipitation, MM = Missing Value Source: NWS Daily Summary

Daily Weather History Graph

Daily Weather History Graph

Search for Another Location

Airport or City:

Trip Planner

Search our weather history database for the weather conditions in past years. The results will help you decide how hot, cold, wet, or windy it might be!

Date:

Astronomy

Dec. 29, 2012 Rise Set
Actual Time 7:52 AM EST 5:15 PM EST
Civil Twilight 7:22 AM EST 5:46 PM EST
Nautical Twilight 6:48 AM EST 6:19 PM EST
Astronomical Twilight 6:15 AM EST 6:52 PM EST
Moon 6:47 PM EST (12/29) 8:25 AM EST (12/29)
Length of Visible Light 10h 23m
Length of Day
9h 23m
Full, 98% of the Moon is Illuminated
Dec 29
Full
Jan 4
Last Quarter
Jan 11
New
Jan 18
First Quarter
Jan 26
Full

Hourly Weather History & Observations

Time (EST) Temp. Windchill Dew Point Humidity Pressure Visibility Wind Dir Wind Speed Gust Speed Precip Events Conditions
12:15 AM 31.1 °F - 26.4 °F 83% 29.84 in 10.0 mi Calm Calm - N/A   Overcast
12:35 AM 31.1 °F - 26.4 °F 83% 29.85 in 10.0 mi Calm Calm - N/A   Overcast
12:55 AM 31.3 °F 27.9 °F 26.6 °F 83% 29.83 in 5.0 mi NE 3.5 mph - N/A Snow Light Snow
1:15 AM 30.9 °F 24.3 °F 26.8 °F 85% 29.81 in 2.0 mi NE 6.9 mph - N/A Snow Light Snow
1:35 AM 30.4 °F 22.2 °F 26.6 °F 86% 29.79 in 2.0 mi NE 9.2 mph - N/A Snow Light Snow
1:55 AM 29.8 °F 21.5 °F 26.6 °F 88% 29.77 in 1.5 mi NE 9.2 mph - N/A Snow Light Snow
2:15 AM 29.3 °F 21.5 °F 26.4 °F 89% 29.77 in 2.0 mi NE 8.1 mph - N/A Snow Light Snow
2:35 AM 29.3 °F 22.3 °F 26.2 °F 88% 29.77 in 2.5 mi NE 6.9 mph - N/A Snow Light Snow
2:55 AM 29.3 °F 23.2 °F 26.4 °F 89% 29.77 in 1.2 mi NE 5.8 mph - N/A Snow Light Snow
3:15 AM 29.3 °F 22.3 °F 26.4 °F 89% 29.75 in 1.0 mi NE 6.9 mph - N/A Snow Snow
3:35 AM 29.1 °F 24.1 °F 26.2 °F 89% 29.76 in 0.8 mi NNE 4.6 mph - N/A Snow Snow
3:55 AM 28.9 °F 21.1 °F 25.9 °F 88% 29.72 in 1.2 mi NE 8.1 mph - N/A Snow Light Snow
4:15 AM 28.8 °F 22.6 °F 25.7 °F 88% 29.72 in 1.5 mi ENE 5.8 mph - N/A Snow Light Snow
4:35 AM 28.8 °F 22.6 °F 25.7 °F 88% 29.71 in 1.5 mi ENE 5.8 mph - N/A Snow Light Snow
4:55 AM 28.8 °F 23.7 °F 25.7 °F 88% 29.70 in 1.5 mi NE 4.6 mph - N/A Snow Light Snow
5:15 AM 28.4 °F 23.3 °F 25.7 °F 90% 29.70 in 1.2 mi NNE 4.6 mph - N/A Snow Light Snow
5:35 AM 28.4 °F 23.3 °F 25.5 °F 89% 29.70 in 2.5 mi NNE 4.6 mph - N/A Snow Light Snow
5:55 AM 28.4 °F 22.2 °F 25.5 °F 89% 29.70 in 2.0 mi NNW 5.8 mph - N/A Snow Light Snow
6:15 AM 28.4 °F 23.3 °F 25.5 °F 89% 29.70 in 1.0 mi NNW 4.6 mph - N/A Snow Light Snow
6:35 AM 28.8 °F 25.0 °F 25.7 °F 88% 29.70 in 2.5 mi NW 3.5 mph - N/A Snow Light Snow
6:55 AM 28.9 °F 22.8 °F 25.9 °F 88% 29.71 in 1.0 mi NW 5.8 mph - N/A Snow Snow
7:15 AM 28.6 °F 21.5 °F 25.7 °F 89% 29.71 in 1.2 mi NW 6.9 mph - N/A Snow Light Snow
7:35 AM 28.4 °F 21.2 °F 25.5 °F 89% 29.72 in 2.0 mi NW 6.9 mph - N/A Snow Light Snow
7:55 AM 28.4 °F 20.4 °F 25.3 °F 88% 29.72 in 1.5 mi North 8.1 mph - N/A Snow Light Snow
8:15 AM 28.4 °F 21.2 °F 25.2 °F 88% 29.72 in 4.0 mi North 6.9 mph - N/A Snow Light Snow
8:35 AM 28.4 °F 21.2 °F 25.3 °F 88% 29.73 in 1.2 mi NNW 6.9 mph - N/A Snow Light Snow
8:55 AM 28.8 °F 22.6 °F 25.5 °F 88% 29.73 in 1.5 mi NNW 5.8 mph - N/A Snow Light Snow
9:15 AM 28.9 °F 21.9 °F 25.7 °F 88% 29.74 in 1.2 mi NNW 6.9 mph - N/A Snow Light Snow
9:35 AM 29.1 °F 22.1 °F 25.7 °F 87% 29.76 in 2.0 mi NW 6.9 mph - N/A Snow Light Snow
9:55 AM 30.0 °F 23.2 °F 25.9 °F 85% 29.76 in 4.0 mi NW 6.9 mph - N/A   Overcast
10:15 AM 30.6 °F 23.1 °F 26.1 °F 83% 29.77 in 4.0 mi NW 8.1 mph - N/A   Haze
10:35 AM 30.9 °F 25.2 °F 26.2 °F 83% 29.78 in 5.0 mi NW 5.8 mph - N/A   Haze
10:55 AM 31.3 °F 24.7 °F 26.4 °F 82% 29.78 in 5.0 mi NW 6.9 mph - N/A   Haze
11:15 AM 31.8 °F 25.4 °F 26.2 °F 80% 29.79 in 5.0 mi NW 6.9 mph - N/A   Haze
11:35 AM 32.0 °F 23.6 °F 26.1 °F 79% 29.80 in 5.0 mi WNW 10.4 mph - N/A   Haze
11:55 AM 32.0 °F 24.8 °F 25.9 °F 78% 29.81 in 5.0 mi WNW 8.1 mph - N/A   Haze
12:15 PM 32.0 °F 23.6 °F 25.9 °F 78% 29.80 in 5.0 mi WNW 10.4 mph - N/A   Haze
12:35 PM 32.0 °F 23.6 °F 25.7 °F 78% 29.80 in 7.0 mi NW 10.4 mph - N/A   Overcast
12:55 PM 32.0 °F 24.2 °F 26.1 °F 79% 29.81 in 5.0 mi WNW 9.2 mph - N/A   Haze
1:15 PM 32.2 °F 24.4 °F 26.4 °F 79% 29.81 in 7.0 mi WNW 9.2 mph - N/A   Overcast
1:55 PM 32.0 °F 23.0 °F 26.1 °F 79% 29.82 in 7.0 mi WNW 11.5 mph - N/A   Overcast
2:15 PM 32.0 °F 22.5 °F 26.1 °F 79% 29.83 in 5.0 mi West 12.7 mph - N/A   Haze
2:35 PM 32.0 °F 23.6 °F 25.9 °F 78% 29.83 in 5.0 mi West 10.4 mph - N/A   Haze
2:55 PM 31.8 °F 21.8 °F 25.9 °F 79% 29.85 in 4.0 mi WNW 13.8 mph 19.6 mph N/A   Haze
3:15 PM 31.5 °F 22.9 °F 25.7 °F 79% 29.85 in 4.0 mi West 10.4 mph - N/A   Haze
3:35 PM 31.5 °F 22.9 °F 25.5 °F 79% 29.87 in 3.0 mi West 10.4 mph - N/A   Haze
3:55 PM 31.5 °F 22.9 °F 25.7 °F 79% 29.88 in 3.0 mi West 10.4 mph - N/A   Haze
4:15 PM 31.5 °F 22.9 °F 25.7 °F 79% 29.88 in 3.0 mi WNW 10.4 mph - N/A Snow Light Snow
4:35 PM 31.5 °F 22.3 °F 25.7 °F 79% 29.90 in 3.0 mi WNW 11.5 mph - N/A   Haze
4:55 PM 31.1 °F 21.9 °F 25.5 °F 80% 29.91 in 3.0 mi West 11.5 mph 17.3 mph N/A   Haze
5:15 PM 31.1 °F 20.9 °F 25.5 °F 80% 29.92 in 3.0 mi West 13.8 mph - N/A   Haze
5:35 PM 31.1 °F 22.4 °F 25.5 °F 80% 29.93 in 2.5 mi West 10.4 mph 16.1 mph N/A Snow Light Snow
5:55 PM 31.1 °F 23.7 °F 25.9 °F 81% 29.94 in 2.0 mi West 8.1 mph - N/A Snow Light Snow
6:15 PM 31.1 °F 26.4 °F 26.1 °F 82% 29.95 in 2.0 mi West 4.6 mph - N/A Snow Light Snow
6:35 PM 30.7 °F 26.0 °F 26.2 °F 83% 29.95 in 1.8 mi WSW 4.6 mph - N/A Snow Light Snow
6:55 PM 30.6 °F 25.8 °F 26.2 °F 84% 29.96 in 1.8 mi WSW 4.6 mph - N/A Snow Light Snow
7:15 PM 30.6 °F 25.8 °F 26.4 °F 85% 29.97 in 1.8 mi WSW 4.6 mph - N/A Snow Light Snow
7:35 PM 30.6 °F 27.1 °F 26.4 °F 85% 29.98 in 2.0 mi WSW 3.5 mph - N/A Snow Light Snow
7:55 PM 30.7 °F 26.0 °F 26.6 °F 85% 29.98 in 2.0 mi West 4.6 mph - N/A Snow Light Snow
8:15 PM 31.3 °F 23.9 °F 26.8 °F 83% 29.98 in 3.0 mi West 8.1 mph - N/A   Overcast
8:35 PM 31.6 °F 20.0 °F 26.8 °F 82% 30.00 in 4.0 mi West 18.4 mph 28.8 mph N/A Snow Light Snow
8:55 PM 31.3 °F 19.2 °F 25.3 °F 79% 30.01 in 4.0 mi West 19.6 mph 25.3 mph N/A   Haze
9:15 PM 30.7 °F 19.6 °F 24.6 °F 78% 30.02 in 5.0 mi West 16.1 mph 27.6 mph N/A   Haze
9:35 PM 30.2 °F 18.5 °F 24.3 °F 79% 30.03 in 5.0 mi West 17.3 mph 23.0 mph N/A   Haze
9:55 PM 30.2 °F 19.3 °F 23.9 °F 77% 30.04 in 5.0 mi West 15.0 mph - N/A Snow Light Snow
10:15 PM 29.7 °F 18.6 °F 23.7 °F 79% 30.05 in 4.0 mi WNW 15.0 mph 20.7 mph N/A Snow Light Snow
10:35 PM 29.1 °F 16.7 °F 23.4 °F 79% 30.06 in 7.0 mi West 18.4 mph - N/A   Overcast
10:55 PM 29.1 °F 17.5 °F 22.8 °F 77% 30.07 in 5.0 mi West 16.1 mph 21.9 mph N/A Snow Light Snow
11:15 PM 28.8 °F 17.5 °F 23.0 °F 79% 30.08 in 4.0 mi West 15.0 mph - N/A Snow Light Snow
11:35 PM 28.4 °F 16.6 °F 23.0 °F 80% 30.10 in 5.0 mi West 16.1 mph - N/A Snow Light Snow
11:55 PM 28.4 °F 17.5 °F 22.8 °F 80% 30.10 in 5.0 mi West 13.8 mph 18.4 mph N/A Snow Light Snow